Regional Weather Roundup
Issued by NWS

Home | Current Version | Previous Version | Text Only | Print | Product List | Glossary Off
Versions: 1 2 3 4 5 6 7 8 9 10 11 12 13 14 15 16 17 18 19 20 21 22 23 24 25 26 27 28 29 30 31 32 33 34 35 36 37 38 39 40 41 42 43 44 45 46 47 48 49 50

072
ASUS43 KLMK 220610
RWRKY
KENTUCKY REGIONAL WEATHER ROUNDUP
NATIONAL WEATHER SERVICE LOUISVILLE KY
200 AM EDT THU JUN 22 2017

NOTE "FAIR" INDICATES FEW OR NO CLOUDS BELOW 12,000 FEET
WITH NO SIGNIFICANT WEATHER AND/OR OBSTRUCTIONS TO VISIBILITY.

KYZ001>023-026-027-061>063-070>075-220700-
WESTERN AND SOUTH CENTRAL KENTUCKY

CITY           SKY/WX    TMP DP  RH WIND       PRES   REMARKS
PADUCAH        CLOUDY    75  68  78 S7        29.95F
HENDERSON      PTCLDY    73  68  84 S6        29.99S
OWENSBORO      PTCLDY    74  68  81 S7        30.00R
HOPKINSVILLE   CLOUDY    76  68  76 SE6       29.99F
BOWLING GREEN  PTCLDY    75  70  84 S7        30.02F
GLASGOW        PTCLDY    72  69  92 CALM      30.03F
$$

KYZ024-025-028>034-038-045-046-053-220700-
NORTH CENTRAL KENTUCKY

CITY           SKY/WX    TMP DP  RH WIND       PRES   REMARKS
LOUISVILLE/SDF CLOUDY    78  68  71 S8        30.00S
LOUISVILLE/LOU PTCLDY    76  68  76 S3        30.01S
FORT KNOX      PTCLDY    71  67  88 S7        30.01R
$$

KYZ035>037-039>044-047>052-055>060-089>105-220700-
NORTHEAST KENTUCKY

CITY           SKY/WX    TMP DP  RH WIND       PRES   REMARKS
LEXINGTON      CLEAR     71  64  78 S6        30.05S
COVINGTON      MOCLDY    73  67  81 S6        30.01R
FRANKFORT      PTCLDY    73  65  75 S3        30.02S
$$

KYZ054-064>069-076>088-106>120-220700-
SOUTHEAST KENTUCKY

CITY           SKY/WX    TMP DP  RH WIND       PRES   REMARKS
JACKSON        MOCLDY    72  64  76 CALM      30.08S
LONDON         PTCLDY    69  64  84 SW3       30.09S
SOMERSET       CLEAR     70  68  94 S3        30.08S
MIDDLESBORO    CLOUDY    67  67  99 CALM      30.11S
MONTICELLO     CLOUDY    71  67  87 N9        30.09S
$$





USA.gov is the U.S. government's official web portal to all federal, state and local government web resources and services.